Lid_Strength_Index
1 1 1 1 1 0 -0 -0 -1 -1 -1 -1 -1 -1 -2 -1 -0 3 6 4 4 1 2 4 4 4 3 4 3 3 10 12 10 10 9 6 7 6 5 6 5 5 5 4 2
0 0 1 1 0 0 0 -0 -1 -1 -1 -1 -1 -1 -1 -1 1 5 0 -0 1 1 4 6 7 6 6 5 5 7 10 10 7 7 8 7 7 6 7 6 6 6 4 3 3
0 0 0 0 0 0 0 -0 -1 -0 -1 -0 -0 -1 -1 -1 4 4 -1 -0 0 1 4 5 6 7 7 5 6 7 10 7 6 7 6 6 7 6 7 8 6 6 6 4 4
0 0 1 1 0 0 0 0 -0 -1 -0 -0 -0 -1 -1 1 10 3 -0 -1 -0 2 4 6 7 8 8 8 5 9 6 6 6 7 7 7 6 8 7 7 5 4 4 4 4
-0 -0 1 1 1 1 1 1 -0 -0 -0 -0 -0 -1 1 5 5 1 -0 0 1 1 4 7 9 8 10 8 7 8 7 6 7 7 7 6 7 7 8 6 5 4 4 4 4
-0 -0 0 1 1 1 1 1 0 -0 -0 -0 -0 -0 3 9 1 0 1 1 2 3 3 5 8 7 9 9 9 8 6 7 7 7 7 8 8 8 7 6 6 5 4 4 4
-2 -1 -1 0 1 1 1 1 1 1 -0 0 0 1 5 7 1 0 0 1 1 3 3 2 4 8 8 9 8 8 10 9 8 7 8 8 9 9 7 7 7 7 6 6 4
-2 -2 -1 -1 -0 1 1 0 0 1 0 0 0 2 7 2 2 3 2 1 0 1 2 1 2 5 7 8 9 10 10 13 8 8 9 8 12 9 8 9 9 9 9 8 7
-2 -2 -1 -1 -1 -1 -1 -1 -0 0 0 0 3 4 8 1 4 2 2 3 2 1 1 1 3 6 6 10 12 11 14 13 12 9 9 10 11 9 8 9 9 9 9 9 10
-2 -2 -1 -1 -1 -1 -1 -1 -1 -1 0 1 2 6 5 6 3 3 2 1 3 3 4 5 6 9 9 10 16 14 13 12 12 12 11 11 10 10 9 9 10 11 11 11 10
-1 -1 -1 -1 -1 -1 -1 0 4 5 3 6 6 6 5 4 2 3 2 3 4 5 10 7 11 12 10 9 9 10 11 12 12 11 12 12 11 12 11 11 11 11 12 11 10
-1 -1 -1 -1 -1 -1 -1 4 3 3 8 4 4 5 4 3 6 5 2 6 7 10 8 10 13 9 8 9 9 10 12 12 11 11 12 12 15 13 13 12 11 11 11 10 9
-2 -2 -2 -1 -1 -0 1 2 -1 0 8 6 5 6 5 4 6 6 4 6 8 10 10 12 10 7 8 9 11 11 12 11 12 12 12 12 14 14 13 12 12 11 10 10 10
-2 -2 -2 -2 1 1 3 -0 -1 -0 11 10 8 6 4 4 8 3 3 5 8 10 9 10 8 9 10 10 10 13 9 10 11 13 16 12 18 14 13 14 13 13 13 12 10
-2 -2 -2 -1 1 3 1 -1 -1 2 19 9 8 2 4 7 6 6 3 5 10 10 9 11 10 11 11 10 9 11 9 10 11 13 14 14 17 15 13 15 14 13 13 13 12
-2 -2 -2 -0 0 0 -1 -1 2 13 19 12 8 8 8 7 7 6 6 4 5 9 9 9 7 9 9 8 8 8 10 11 12 14 19 15 15 15 15 15 14 13 13 12 12
-2 -2 -1 -1 3 -1 -1 3 13 17 10 12 12 9 9 10 9 8 9 10 12 15 15 11 11 8 8 10 9 9 13 19 20 20 20 13 16 15 14 14 13 13 13 13 12
-2 -2 -1 -0 -1 -1 2 9 17 13 13 9 9 9 12 10 10 9 11 12 9 10 14 16 17 11 8 9 12 11 12 18 22 21 19 14 18 17 14 13 13 12 12 12 13
-2 -0 1 0 -1 -0 6 14 14 12 10 11 10 13 13 11 11 11 11 12 10 9 15 15 16 9 9 8 9 12 14 11 15 18 18 17 17 14 14 14 14 14 13 14 13
1 2 2 0 -0 2 9 12 11 9 9 10 14 12 15 13 13 13 13 10 11 8 8 12 16 11 10 9 9 10 9 15 15 20 22 18 18 19 16 15 14 14 14 14 13
2 6 1 -0 0 6 12 12 10 8 7 10 12 13 12 13 12 13 13 11 9 9 8 9 12 14 11 13 13 12 13 13 13 15 19 20 19 14 14 14 15 14 13 13 13
3 9 1 0 8 9 10 11 8 8 7 8 9 10 12 11 12 13 13 11 9 8 11 9 12 16 14 10 9 10 12 12 17 18 15 16 18 12 12 13 13 13 12 12 11
6 6 1 2 11 10 11 11 9 9 9 9 10 9 9 11 14 12 11 8 7 9 11 9 13 17 16 13 10 13 12 11 12 13 17 18 18 11 11 12 12 12 11 11 11
5 9 6 5 6 9 12 13 13 8 9 8 9 8 10 12 10 12 12 9 7 8 8 8 12 15 18 16 13 15 13 12 13 17 16 16 16 12 11 12 11 11 11 11 11
5 8 7 10 10 9 10 12 13 13 8 8 10 10 11 13 12 12 10 9 8 7 8 9 15 13 14 13 12 13 13 13 14 13 16 14 14 11 9 11 12 11 11 11 11
7 7 6 10 8 9 9 11 11 10 10 10 11 11 11 13 12 13 11 11 12 9 10 9 14 15 17 15 12 14 12 12 12 12 12 12 12 9 12 12 12 12 11 11 11
4 4 5 8 8 10 10 10 9 8 8 8 8 10 13 12 10 10 9 9 10 11 11 12 16 18 21 17 19 21 16 13 12 11 12 14 12 12 13 12 12 12 11 11 10